CZ-6A DEB, 61094

Orbit data source: Space-Track

CZ-6A DEB, 61094 is space debris in LEO originally from a launch on Tue, 06 Aug 2024 UTC launched from the Taiyaun Space Center, China (TSC). Debris objects in space refer to the collection of defunct objects orbiting the Earth. Examples of debris include non-operational satellites, rocket bodies, and fragments generated from explosions, collisions, or faulty payload assembly.

Loading next visibility...
Identifier
61094, 2024-140NL
Orbit
LEO
Country
Flag of CNCN / PRC
Related business
Manufacturer
SAST
Mission
Spacecraft
Bus & Motor
Unknown
Mass
Unknown
Launch date (UTC)
2024-08-06 (2 years ago)
Launch vehicle
Unknown
Launch site
Taiyaun Space Center, China (TSC)
Object type
Payload
Rocket body
Debris
Shape & HBR
Unknown shape, 0.2 m
Radar Cross Section
Medium (>0.1 m² and <1 m²)

Expand to show TLE details & history
Last TLE update: 14 hours ago

TLE from 14 hours ago
0 CZ-6A DEB
1 61094U 24140NL  26171.26385097  .00000257  00000-0  11846-3 0  9995
2 61094  89.0116 275.4980 0056392 173.8086 186.3812 14.17124172 93562
Epoch: 2026-06-20T06:19Z
TLE epoch observation values (Epoch: 2026-06-20T06:19:56.723Z)
Latitude
-0.00008°
Longitude
-87.96932°
Altitude
878.58 km
Speed
7.392 km/s
True Right ascension
18h 21m 59s
True Declination
0° 00' 00"
Sunlit
Object was in full shadow at epoch
Visualization orbit readout
Latitude
Unknown
Longitude
Unknown
Altitude
Unknown
Speed
Unknown
Apparent Right ascension
Unknown
Apparent Declination
Unknown
Sunlit
N/A
Visualization observer readout
Local Sidereal Time
07:24:38
Azimuth
Unknown
Elevation
Unknown
Doppler factor
Unknown
Orbital elements
Apogee altitude
872.71 km
Perigee altitude
791.391 km
Semi-major axis
7,210.187 km
Eccentricity
0.00564
Inclination
89.0116°
RAAN
275.498°
Arg. of periapsis
173.8086°
True anomaly
186.30988°
Mean anomaly
186.3812°
Eccentric anomaly
186.34549°
Mean motion
3.54506 °/min
Orbital period
101.55 mins
BSTAR
0.00011846
Loading maneuver chart data...
Computing Atmospheric mass density...
Loading historical data...
Loading historical data...
Loading historical data...
Loading historical data...
Loading historical data...
Loading historical data...
Loading historical data...

Documentation

Showing up to 5 results
|